Flag for Canada Weather past 2 weeks in Nanaimo, British Columbia, Canada

Now
60 °F

Cool.


Feels Like: 59 °F
Forecast: 54 / 71 °F
Wind: 6 mph from Southeast

Location: Entrance Island

Current Time: Jul 22, 2014 at 7:04:12 AM

Latest Report: Jul 22, 2014 at 6:00 AM


Visibility: N/A

Pressure: 29.99 "Hg

Humidity: 80%

Dew point: 54 °F

Location of NanaimoLocation

Historic Weather in Nanaimo — Graph

°F

Nanaimo temperature yesterday

Maximum temperature yesterday: 66 °F (at 8:00 PM)
Minimum temperature yesterday: 59 °F (at 10:00 AM)
Average temperature yesterday: 62 °F

Past Weeks' High & Low Weather Summary

 TemperatureHumidityPressure
High79 °F (Jul 14, 6:00 PM)93% (Jul 19, 4:00 AM)30.16 "Hg (Jul 19, 4:00 AM)
Low58 °F (Jul 22, 5:00 AM)44% (Jul 14, 6:00 PM)29.86 "Hg (Jul 19, 8:00 PM)
Average66 °F70%29.99 "Hg
* Reported Jul 7 5:00 AM — Jul 22 5:00 AM, Nanaimo, Weather by CustomWeather, © 2014

Note: Actual official high and low records may vary slightly from our data, if they occured in-between our weather recording intervals... More about our weather records

Advertising

Nanaimo weather history for previous 24 hours

 ConditionsComfort  
Time TempWeatherWind HumidityBarometerVisibility
5:00 AM
Jul 22
58 °FCool.6 mph80%29.99 "HgN/A
4:00 AM60 °FCool.9 mph80%29.98 "HgN/A
3:00 AM61 °FCool.10 mph76%29.98 "HgN/A
2:00 AM62 °FCool.6 mph71%29.98 "HgN/A
1:00 AM62 °FCool.9 mph70%29.97 "HgN/A
12:00 AM62 °FCool.12 mph68%29.96 "HgN/A
11:00 PM
Jul 21
63 °FMild.8 mph72%29.96 "HgN/A
10:00 PM64 °FMild.9 mph69%29.96 "HgN/A
9:00 PM65 °FMild.8 mph62%29.96 "HgN/A
8:00 PM66 °FMild.12 mph60%29.95 "HgN/A
7:00 PM65 °FMild.14 mph75%29.95 "HgN/A
6:00 PM65 °FMild.15 mph76%29.96 "HgN/A
5:00 PM65 °FMild.16 mph73%29.97 "HgN/A
4:00 PM65 °FMild.18 mph74%29.99 "HgN/A
3:00 PM64 °FMild.18 mph74%29.99 "HgN/A
2:00 PM64 °FMild.17 mph75%30.00 "HgN/A
1:00 PM62 °FMild.17 mph77%30.01 "HgN/A
12:00 PM62 °FCool.15 mph75%30.02 "HgN/A
11:00 AM61 °FCool.14 mph78%30.03 "HgN/A
10:00 AM59 °FCool.16 mph86%30.02 "HgN/A
9:00 AM60 °FCool.16 mph82%30.02 "HgN/A
8:00 AM60 °FCool.13 mph82%30.01 "HgN/A
7:00 AM61 °FCool.9 mph83%29.99 "HgN/A
Weather by CustomWeather, © 2014

See weather overviewHow to use our weather pages